Tracking 22454 objects as of 5-Mar-2021
HD Live streaming from Space Station
objects crossing your sky now

DELTA 1 DEB

Track DELTA 1 DEB now!
10-day predictions


NORAD ID: 21548
Int'l Code: 1975-052HC
Perigee: 1,097.8 km
Apogee: 1,477.6 km
Inclination: 99.8 °
Period: 111.2 minutes
Semi major axis: 7658 km
RCS: 0.0496 m2 (small)
Launch date: June 12, 1975
Source: United States (US)
Launch site: AIR FORCE WESTERN TEST RANGE (AFWTR)

Note: This is SATELLITE DEBRIS
aabbcc
Your satellite tracking list
Your tracking list is empty




NASA's NSSDC Master Catalog

Two Line Element Set (TLE):
1 21548U 75052HC  21063.26210963  .00000199  00000-0  72843-3 0  9996
2 21548  99.8141 325.7626 0248003  55.7553  63.9942 12.95299101409423
Source of the keplerian elements: AFSPC